Regional Weather Roundup
Issued by NWS

Home | Current Version | Previous Version | Graphics & Text | Print | Product List | Glossary On
Versions: 1 2 3 4 5 6 7 8 9 10 11 12 13 14 15 16 17 18 19 20 21 22 23 24 25 26 27 28 29 30 31 32 33 34 35 36 37 38 39 40 41 42 43 44 45 46 47 48 49 50
000
ASUS43 KMKX 261611
RWRWI

WISCONSIN REGIONAL WEATHER ROUNDUP
NATIONAL WEATHER SERVICE MILWAUKEE/SULLIVAN WI
1000 AM CST FRI DEC 26 2014

NOTE: "FAIR" INDICATES FEW OR NO CLOUDS BELOW 12,000 FEET WITH NO
SIGNIFICANT WEATHER AND/OR OBSTRUCTIONS TO VISIBILITY.

WIZ001-002-006>008-014>016-023>028-261700-
NORTHWEST WISCONSIN

CITY           SKY/WX    TMP DP  RH WIND       PRES   REMARKS
SUPERIOR ARPT  MIX PCPN  30  25  81 N6        30.07R WCI  24
ASHLAND        FLURRIES  31  28  89 N7        30.04R WCI  24
HAYWARD        CLOUDY    30  27  88 N6        30.00R WCI  24
SIREN          LGT SNOW  29  28  94 N9        30.02F WCI  21
CUMBERLAND     LGT SNOW  30  28  93 N8        29.98R WCI  23
RICE LAKE      LGT SNOW  32  30  92 N8        29.99R WCI  25
CHETEK         CLOUDY    32  30  93 NW3       29.97R FOG
LADYSMITH      CLOUDY    32  30  93 N8        29.98R FOG     WCI  25
EAU CLAIRE     CLOUDY    34  30  85 N5        29.96R WCI  30
MENOMONIE      CLOUDY    33  31  92 N5        29.97R FOG     WCI  29
NEW RICHMOND   CLOUDY    31  31  99 N9        30.00R FOG     WCI  23
OSCEOLA        LGT SNOW  31  31 100 N7        30.04R WCI  24
$$

WIZ003>005-009-010-017-018-261700-
NORTH CENTRAL WISCONSIN

CITY           SKY/WX    TMP DP  RH WIND       PRES   REMARKS
MANITOWISH WTR LGT SNOW  29  29 100 N3        29.96R
ARBOR VITAE    LGT SNOW  32  30  93 N5        29.95R WCI  27
WOODRUFF       LGT SNOW  32  30  93 N5        29.95R WCI  27
RHINELANDER    CLOUDY    30  28  92 NE5       29.95R FOG     WCI  25
EAGLE RIVER    CLOUDY    30  29  99 CALM      29.94S FOG
LAND O LAKES   LGT SNOW  29  28  98 CALM      29.96R
PHILLIPS       LGT SNOW  29  28  95 N6        29.94S WCI  23
TOMAHAWK       CLOUDY    31  29  93 CALM      29.95R FOG
MEDFORD        CLOUDY    30  29  96 NE6       29.93S FOG     WCI  24
MERRILL        CLOUDY    31  30  99 CALM      29.95R FOG
$$

WIZ029-030-035-036-043>047-261700-
CENTRAL WISCONSIN

CITY           SKY/WX    TMP DP  RH WIND       PRES   REMARKS
WAUSAU         CLOUDY    30  30 100 CALM      29.94R FOG
MOSINEE        FOG       28  28 100 NE3       29.95R VSB 1/4
MARSHFIELD     MOSUNNY   32  30  92 NE3       29.94R FOG
STEVENS POINT  SUNNY     29  29 100 CALM      29.96R
WAUPACA        FOG       32  31  96 CALM      29.97R VSB 1/4
WAUTOMA        SUNNY     37  35  92 CALM      29.96S
WISC RAPIDS    SUNNY     36  32  85 S5        29.96R WCI  32
CAMP DOUGLAS   SUNNY     34  34 100 SE2       29.95R
$$

WIZ011>013-019>022-031-037>040-048>050-261700-
NORTHEAST WISCONSIN

CITY           SKY/WX    TMP DP  RH WIND       PRES   REMARKS
ANTIGO         FOG       30  30 100 CALM      29.94S VSB 1/4
SHAWANO        FOG       31  30  95 CALM      29.98S VSB<1/4
OCONTO         SUNNY     33  33 100 CALM      29.99S
STURGEON BAY   MOSUNNY   37  34  87 SW5       30.00R WCI  34
GREEN BAY      SUNNY     37  35  92 S5        29.98R WCI  33
MANITOWOC      SUNNY     40  36  86 S5        29.99R
APPLETON       MOSUNNY   36  36 100 VRB3      29.98R
CLINTONVILLE   FOG       30  30 100 NE3       29.97S VSB<1/4
OSHKOSH        SUNNY     39  34  82 S8        29.97R WCI  33
$$

WIZ032>034-041-042-053>061-261700-
SOUTHWEST WISCONSIN

CITY           SKY/WX    TMP DP  RH WIND       PRES   REMARKS
LA CROSSE      SUNNY     34  30  85 NW3       29.95R
SPARTA         SUNNY     33  32  95 CALM      29.95R
VIROQUA        SUNNY     38  34  87 S6        29.93R WCI  33
BOSCOBEL       SUNNY     37  33  85 CALM      29.96R
PRAIRIE DU CHI SUNNY     39  32  77 CALM      29.95S
PLATTEVILLE    MOSUNNY   38  35  87 CALM      29.97R
$$

WIZ056-057-062-063-064-067-068-261700-
SOUTH CENTRAL WISCONSIN

CITY           SKY/WX    TMP DP  RH WIND       PRES   REMARKS
REEDSBURG      SUNNY     40  34  81 S6        29.95R
BARABOO/DELLS  SUNNY     41  32  72 SW9       29.95R
LONE ROCK      SUNNY     43  33  68 CALM      29.96R
MINERAL POINT  SUNNY     39  34  81 S6        29.95R WCI  35
MADISON        PTSUNNY   40  34  79 S8        29.97R WCI  34
MIDDLETON      SUNNY     41  35  77 SW6       29.97R
WATERTOWN      SUNNY     39  36  88 S8        29.99R WCI  34
MONROE         MOSUNNY   37  36  93 S12       29.96R WCI  30
JANESVILLE     SUNNY     39  36  87 S6        29.99R WCI  35
$$

WIZ051-052-058>065-066-070>072-261700-
SOUTHEAST WISCONSIN

CITY           SKY/WX    TMP DP  RH WIND       PRES   REMARKS
MILWAUKEE      PTSUNNY   41  33  73 SW9       30.00R
WAUKESHA       SUNNY     37  34  87 SW14G21   30.00R WCI  29
MILWAUKEE/TIMM SUNNY     41  34  75 SW12      30.01R
RACINE         MOSUNNY   41  34  76 SW9       30.02R
BURLINGTON     MOSUNNY   39  34  84 SW9       30.00S WCI  33
KENOSHA        MOSUNNY   42  36  79 SW12      30.00R
FOND DU LAC    SUNNY     41  34  76 SW12      29.97R
SHEBOYGAN      SUNNY     40  35  83 SW7       29.98R
WEST BEND      SUNNY     43  34  70 SW9       29.98R
JUNEAU         SUNNY     38  35  88 S8        29.99R WCI  32
$$

LSZ147-162-261700-
LAKE SUPERIOR

STATION/POSITION TIME  TEMP    WIND        PRES    WAVE
                       AIR SEA DIR/SP/G            HT/PER
                 (UTC) (F)     (DEG/KT/KT) (MB)    (FT/S)
DEVILS ISLAND    1600   32      10/ 12/ 13 1018.3R
PORT WING        1540   32      10/ 10/ 12 1017.6R
SAXON HARBOR     1540   34      10/  8/ 10 1016.9R
$$

LMZ867-665-643>646-261700-
LAKE MICHIGAN

STATION/POSITION TIME  TEMP    WIND        PRES    WAVE
                       AIR SEA DIR/SP/G            HT/PER
                 (UTC) (F)     (DEG/KT/KT) (MB)    (FT/S)
CHAMBERS ISLAND  1500   34        CALM     1014.9S
NORTHPORT PIER   1500   36        CALM     1014.9R
SISTER BAY       1528             CALM       N/A
ALGOMA LAKESHORE 1515          230/  6/  8   N/A
KEWAUNEE LAKESHO 1500   38     200/  6/  9 1014.0R
SHEBOYGAN LAKESH 1600   41 39  210/ 10/ 12 1016.2R
PORT WASHINGTON  1540   44     190/  3/  6 1016.6R
MILWAUKEE LAKESH 1500   40     210/  8/ 10   N/A
KENOSHA   LAKESH 1600   43     220/  8/ 14 1016.3S
$$

TC  - TEMPERATURE IN CELSIUS
VSB - VISIBILITY IN STATUTE MILES
WCI - WIND CHILL INDEX
HX  - HEAT INDEX



USA.gov is the U.S. government's official web portal to all federal, state and local government web resources and services.